TimeEDT,TemperatureF,Dew PointF,Humidity,Sea Level PressureIn,VisibilityMPH,Wind Direction,Wind SpeedMPH,Gust SpeedMPH,PrecipitationIn,Events,Conditions,WindDirDegrees,DateUTC
12:56 AM,68.0,50.0,52,29.89,10.0,West,12.7,-,N/A,,Scattered Clouds,260,2013-04-10 04:56:00
1:56 AM,68.0,50.0,52,29.88,10.0,West,11.5,-,N/A,,Mostly Cloudy,260,2013-04-10 05:56:00
2:56 AM,69.1,50.0,51,29.88,10.0,West,11.5,-,N/A,,Overcast,260,2013-04-10 06:56:00
3:56 AM,69.1,51.1,53,29.89,10.0,West,11.5,-,N/A,,Overcast,270,2013-04-10 07:56:00
4:56 AM,64.9,50.0,58,29.91,10.0,WNW,5.8,-,N/A,,Overcast,300,2013-04-10 08:56:00
5:56 AM,64.0,50.0,60,29.90,10.0,Calm,Calm,-,N/A,,Overcast,0,2013-04-10 09:56:00
6:56 AM,62.1,50.0,65,29.91,10.0,Calm,Calm,-,N/A,,Overcast,0,2013-04-10 10:56:00
7:56 AM,63.0,50.0,63,29.91,10.0,Calm,Calm,-,N/A,,Mostly Cloudy,0,2013-04-10 11:56:00
8:56 AM,64.9,52.0,63,29.92,10.0,SW,8.1,-,N/A,,Overcast,220,2013-04-10 12:56:00
9:56 AM,69.1,54.0,58,29.90,10.0,SW,11.5,-,N/A,,Mostly Cloudy,230,2013-04-10 13:56:00
10:33 AM,69.8,55.4,60,29.94,10.0,WSW,16.1,21.9,N/A,,Overcast,240,2013-04-10 14:33:00
10:42 AM,69.8,55.4,60,29.94,10.0,WSW,15.0,25.3,N/A,,Overcast,240,2013-04-10 14:42:00
11:08 AM,69.8,55.4,60,29.93,10.0,WSW,11.5,-,N/A,,Overcast,240,2013-04-10 15:08:00
11:56 AM,73.0,57.0,57,29.88,10.0,WSW,13.8,-,N/A,,Overcast,240,2013-04-10 15:56:00
12:05 PM,71.6,55.4,57,29.92,10.0,WSW,20.7,25.3,N/A,,Overcast,250,2013-04-10 16:05:00
12:33 PM,71.6,55.4,57,29.92,10.0,SW,16.1,21.9,0.00,,Overcast,230,2013-04-10 16:33:00
12:41 PM,71.6,57.2,60,29.91,10.0,SW,11.5,21.9,0.00,,Overcast,230,2013-04-10 16:41:00
12:56 PM,71.1,55.9,59,29.87,10.0,SW,11.5,-,0.00,,Overcast,220,2013-04-10 16:56:00
1:56 PM,73.9,55.9,53,29.85,10.0,WSW,10.4,-,N/A,,Overcast,240,2013-04-10 17:56:00
2:29 PM,73.4,55.4,53,29.88,10.0,SW,8.1,-,N/A,Thunderstorm,Thunderstorm,230,2013-04-10 18:29:00
3:00 PM,62.6,53.6,72,29.91,4.0,WNW,11.5,-,0.00,Rain-Thunderstorm,Light Thunderstorms and Rain,300,2013-04-10 19:00:00
3:39 PM,62.6,57.2,82,29.89,10.0,SW,4.6,-,0.00,,Scattered Clouds,220,2013-04-10 19:39:00
3:56 PM,64.9,59.0,81,29.86,10.0,SW,6.9,-,0.00,,Overcast,230,2013-04-10 19:56:00
4:11 PM,64.4,60.8,88,29.88,7.0,WSW,13.8,25.3,0.00,Rain-Thunderstorm,Light Rain,240,2013-04-10 20:11:00
4:26 PM,64.4,57.2,77,29.82,9.0,SW,16.1,29.9,0.00,Rain,Light Rain,220,2013-04-10 20:26:00
4:56 PM,66.0,57.9,75,29.79,10.0,WNW,6.9,-,0.00,,Partly Cloudy,290,2013-04-10 20:56:00
5:48 PM,66.2,57.2,73,29.84,10.0,WSW,9.2,-,N/A,Thunderstorm,Overcast,250,2013-04-10 21:48:00
5:56 PM,66.0,57.0,73,29.80,10.0,SW,8.1,-,N/A,Thunderstorm,Overcast,230,2013-04-10 21:56:00
6:03 PM,66.2,57.2,73,29.83,10.0,SW,6.9,-,N/A,,Overcast,230,2013-04-10 22:03:00
6:53 PM,64.4,59.0,83,29.85,1.8,West,8.1,18.4,0.00,Rain-Thunderstorm,Thunderstorms and Rain,270,2013-04-10 22:53:00
6:56 PM,64.9,59.0,81,29.84,1.2,West,27.6,42.6,0.00,Rain-Thunderstorm,Heavy Thunderstorms and Rain,270,2013-04-10 22:56:00
7:02 PM,64.4,59.0,83,29.86,0.8,NW,19.6,43.7,0.00,Rain-Thunderstorm,Heavy Thunderstorms and Rain,310,2013-04-10 23:02:00
7:11 PM,64.4,57.2,77,29.86,2.5,WNW,16.1,26.5,0.00,Rain-Thunderstorm,Light Thunderstorms and Rain,300,2013-04-10 23:11:00
7:18 PM,62.6,57.2,82,29.87,10.0,WNW,10.4,19.6,0.00,Thunderstorm,Thunderstorm,300,2013-04-10 23:18:00
7:56 PM,62.1,57.9,86,29.86,6.0,SSW,9.2,-,0.01,Rain,Light Rain,210,2013-04-10 23:56:00
8:09 PM,62.6,57.2,82,29.87,6.0,SW,10.4,-,0.03,Rain-Thunderstorm,Light Thunderstorms and Rain,230,2013-04-11 00:09:00
8:53 PM,60.8,55.4,82,29.91,7.0,West,10.4,-,0.11,Rain,Light Rain,260,2013-04-11 00:53:00
8:56 PM,60.1,55.9,86,29.88,8.0,West,10.4,-,0.11,Rain,Light Rain,260,2013-04-11 00:56:00
9:44 PM,59.0,55.4,88,29.94,4.0,WNW,10.4,-,0.09,Rain,Light Rain,300,2013-04-11 01:44:00
9:56 PM,59.0,55.0,87,29.92,3.0,West,9.2,-,0.15,Rain,Light Rain,280,2013-04-11 01:56:00
10:05 PM,59.0,55.4,88,29.93,2.5,NW,5.8,-,0.05,Rain-Thunderstorm,Rain,310,2013-04-11 02:05:00
10:15 PM,57.2,55.4,94,29.91,3.0,West,6.9,-,0.10,Rain,Light Rain,280,2013-04-11 02:15:00
10:24 PM,59.0,55.4,88,29.91,5.0,West,13.8,17.3,0.11,Rain-Thunderstorm,Light Thunderstorms and Rain,260,2013-04-11 02:24:00
10:39 PM,59.0,55.4,88,29.91,7.0,WSW,10.4,-,0.13,Rain,Light Rain,250,2013-04-11 02:39:00
10:56 PM,57.9,55.0,90,29.88,7.0,SW,5.8,-,0.16,Rain,Light Rain,230,2013-04-11 02:56:00
11:56 PM,59.0,55.0,87,29.82,10.0,South,4.6,-,0.05,,Partly Cloudy,190,2013-04-11 03:56:00